Погода в Ачирах

Россия / Тюменская область     58°47′32″N   67°18′33″E
темп.,
°C
ветер,
м/с
пор.,
м/с
влажн.,
%
обл.,
%
осадки,
мм/ч
давл.,
гПа
погр.,
м
6 марта, сб
сб623:00−9ю129783 0.3 99621
02:00−8юз2297100 0.1 99547
05:00−12з2397100 0.2 99678
08:00−12з4109677 0.0 997297
11:00−10зюз5109289 0.1 999558
14:00−9зюз51091100 0.2 1001644
17:00−8з51090100 0.4 1002894
20:00−11зюз3108991 0.0 1003227
7 марта, вс
вс723:00−14зюз369346 0.0 1004132
02:00−14зюз379552 0.1 1006264
05:00−13з379771 0.3 1008153
08:00−17зюз239770 0.0 101041
11:00−13юз249352 0.0 1011255
14:00−11ю249267 0.0 1010369
17:00−11ююв249579 0.0 100989
20:00−14вюв2296100 0.0 100721
8 марта, пн
пн823:00−13св2297100 0.1 100545
02:00−13ссз2496100 0.4 1002128
05:00−14сз3795100 0.5 1002247
08:00−19зсз379885 0.0 1003147
11:00−15з369487 0.0 1005303
14:00−11зюз3589100 0.0 1006653
17:00−11юз2691100 0.1 1006430
20:00−13ю2694100 0.0 1007193
9 марта, вт
вт923:00−13ю389598 0.1 1006300
02:00−14ююв399696 0.0 1005254
05:00−11ю4109398 0.3 1003431
08:00−9ююз3895100 0.4 1003359
11:00−6ююз3692100 0.7 1002483
14:00−5ююв2495100 0.3 1001410
17:00−4ююв2597100 2.1 1000402
20:00−6ссз81393100 5.5 1001758
10 марта, ср
ср1023:00−13зсз379698 6.1 1004152
02:00−19сз239989 0.0 100632
05:00−22с1210065 0.0 100720
08:00−22св129972 0.0 100720
11:00−16всв249582 0.0 1006224
14:00−13св2493100 0.0 1004359
17:00−13с3595100 0.3 1002252
20:00−17с3796100 0.4 1002215